This demonstration page uses our WeatherBlox Daily Observations layout. Learn more.

Left ArrowRight Arrow

Hourly Observations for September 21, 2020

Temp ( °F °C ) Dew Point ( °F °C ) Humidity (%) Winds ( mph kmh ) Pressure ( in mb ) Visibility ( mi km ) Precip ( " mm )
12:15 am 00:15 Clear 64 17.6 53 11.5 68 68 SSE 10 17 30.05 1018 10 16 N/A
12:35 am 00:35 Clear 64 17.5 52 11.3 67 67 SSE 9 15 30.05 1018 7 11 N/A
12:55 am 00:55 Clear 63 17.1 52 11.3 69 69 SSE 10 17 30.05 1018 10 16 N/A
1:15 am 01:15 Clear 62 16.7 52 11.2 70 70 S 7 11 30.06 1018 7 11 N/A
1:35 am 01:35 Clear 61 16.3 52 11.1 72 72 SSE 8 13 30.06 1018 7 11 N/A
1:55 am 01:55 Clear 61 16 52 11 72 72 S 8 13 30.06 1018 10 16 N/A
2:15 am 02:15 Clear 60 15.5 52 11 75 75 SSE 6 9 30.07 1018 10 16 N/A
2:35 am 02:35 Clear 59 15.1 51 10.8 76 76 SSE 7 11 30.08 1019 10 16 N/A
2:55 am 02:55 Clear 59 15 51 10.7 76 76 SSE 8 13 30.08 1019 7 11 N/A
3:15 am 03:15 Clear 59 15 51 10.5 75 75 SSE 10 17 30.08 1019 10 16 N/A
3:35 am 03:35 Clear 59 15 51 10.3 74 74 SSE 9 15 30.08 1019 10 16 N/A
3:55 am 03:55 Clear 59 14.8 50 10.1 74 74 SSE 9 15 30.07 1018 10 16 N/A
4:15 am 04:15 Clear 58 14.6 50 10 74 74 SSE 10 17 30.07 1018 10 16 N/A
4:35 am 04:35 Clear 58 14.6 50 10 74 74 SSE 12 19 30.07 1018 10 16 N/A
4:55 am 04:55 Clear 58 14.7 50 10 74 74 S 10 17 30.08 1019 10 16 N/A
5:15 am 05:15 Clear 58 14.5 50 10 75 75 SSE 12 19 30.07 1018 10 16 N/A
5:35 am 05:35 Clear 58 14.2 50 10 76 76 SSE 9 15 30.08 1018 10 16 N/A
5:55 am 05:55 Clear 57 14.1 50 10 77 77 S 10 17 30.08 1019 10 16 N/A
6:15 am 06:15 Clear 57 14 50 10.1 78 78 S 12 19 30.07 1018 10 16 N/A
6:35 am 06:35 Clear 58 14.3 50 10 76 76 S 13 20 30.08 1018 10 16 N/A
6:55 am 06:55 Clear 58 14.2 50 10 76 76 S 8 13 30.09 1019 10 16 N/A
7:15 am 07:15 Clear 57 14 50 10 77 77 SSE 8 13 30.08 1019 10 16 N/A
7:35 am 07:35 Sunny 57 13.8 50 10.1 79 79 S 12 19 30.09 1019 10 16 N/A
7:55 am 07:55 Sunny 57 14 50 10.1 78 78 S 12 19 30.11 1020 10 16 N/A
8:15 am 08:15 Sunny 57 14.1 50 10.2 78 78 S 13 20 30.11 1020 10 16 N/A
8:35 am 08:35 Sunny 58 14.6 50 10.2 75 75 S 10 17 30.11 1020 10 16 N/A
8:55 am 08:55 Sunny 59 15 51 10.3 74 74 S 12 19 30.11 1020 10 16 N/A
9:15 am 09:15 Sunny 60 15.3 51 10.3 72 72 S 10 17 30.11 1020 10 16 N/A
9:35 am 09:35 Sunny 62 16.8 51 10.5 67 67 S 12 19 30.10 1019 10 16 N/A
9:55 am 09:55 Sunny 65 18.2 51 10.6 61 61 SSW 8 13 30.11 1020 10 16 N/A
10:15 am 10:15 Sunny 65 18.1 51 10.3 61 61 SSW 10 17 30.09 1019 10 16 N/A
10:35 am 10:35 Sunny 66 18.9 51 10.5 58 58 SSW 8 13 30.11 1019 10 16 N/A
10:55 am 10:55 Sunny with Nearby Thunderstorms 67 19.2 51 10.5 57 57 SSW 10 17 30.08 1019 10 16 N/A
11:15 am 11:15 Sunny 68 20 51 10.6 55 55 SSW 9 15 30.10 1019 10 16 N/A
11:35 am 11:35 Sunny 69 20.4 51 10.6 54 54 S 8 13 30.07 1018 10 16 N/A
11:55 am 11:55 Sunny 71 21.5 52 11 51 51 SSW 9 15 30.07 1018 10 16 N/A
12:15 pm 12:15 Sunny 72 22.4 51 10.7 48 48 S 9 15 30.06 1018 10 16 N/A
12:35 pm 12:35 Sunny 74 23.1 52 11 47 47 S 10 17 30.04 1017 10 16 N/A
12:55 pm 12:55 Sunny 75 24.1 53 11.4 45 45 SSE 9 15 30.03 1017 10 16 N/A
1:15 pm 13:15 Sunny 77 25.2 52 11 41 41 S 12 19 30.01 1016 10 16 N/A
1:35 pm 13:35 Sunny 79 26 50 10.2 37 37 S 13 20 30.01 1016 10 16 N/A
1:55 pm 13:55 Sunny 80 26.6 51 10.5 36 36 SSE 15 24 29.98 1015 10 16 N/A
2:15 pm 14:15 Sunny 81 27.2 51 10.5 35 35 SSE 14 22 29.97 1015 10 16 N/A
2:35 pm 14:35 Sunny 82 28 51 10.7 34 34 S 14 22 29.95 1014 10 16 N/A
2:55 pm 14:55 Sunny 83 28.4 51 10.8 33 33 SSE 20 31 29.94 1014 10 16 N/A
3:15 pm 15:15 Sunny 83 28.6 51 10.7 33 33 SSE 17 28 29.93 1013 10 16 N/A
3:35 pm 15:35 Sunny 84 28.8 51 10.5 32 32 S 16 26 29.92 1013 10 16 N/A
3:55 pm 15:55 Sunny 84 28.9 50 10.2 31 31 S 18 30 29.92 1013 10 16 N/A
4:15 pm 16:15 Sunny 84 29 50 10.1 31 31 S 15 24 29.91 1013 10 16 N/A
4:35 pm 16:35 Sunny 84 28.8 51 10.7 32 32 S 15 24 29.91 1013 10 16 N/A
4:55 pm 16:55 Sunny 83 28.6 52 11 33 33 S 16 26 29.90 1012 10 16 N/A
5:15 pm 17:15 Sunny 83 28.1 52 11.2 35 35 SSE 16 26 29.91 1013 10 16 N/A
5:35 pm 17:35 Sunny 83 28.2 52 11 34 34 S 14 22 29.92 1013 10 16 N/A
5:55 pm 17:55 Sunny 81 27.4 51 10.5 35 35 S 15 24 29.91 1013 10 16 N/A
6:15 pm 18:15 Sunny 80 26.5 51 10.7 37 37 S 14 22 29.92 1013 10 16 N/A
6:35 pm 18:35 Sunny 79 26.1 51 10.3 37 37 SSE 15 24 29.93 1013 10 16 N/A
6:55 pm 18:55 Sunny 78 25.7 50 10.1 37 37 SSE 10 17 29.93 1014 10 16 N/A
7:15 pm 19:15 Sunny 77 24.8 51 10.5 41 41 SSE 9 15 29.95 1014 10 16 N/A
7:35 pm 19:35 Sunny 75 24.1 51 10.3 42 42 SSE 9 15 29.95 1014 10 16 N/A
7:55 pm 19:55 Clear 74 23.5 51 10.3 43 43 SSE 9 15 29.96 1015 10 16 N/A
8:15 pm 20:15 Clear 71 21.6 51 10.7 50 50 SSE 7 11 29.98 1015 10 16 N/A
8:35 pm 20:35 Clear 67 19.2 52 11 59 59 SE 8 13 30.00 1016 10 16 N/A
8:55 pm 20:55 Clear 66 18.9 53 11.6 63 63 SSE 7 11 30.02 1016 10 16 N/A
9:15 pm 21:15 Clear 67 19.4 52 11.3 60 60 SSE 7 11 30.01 1016 10 16 N/A
9:35 pm 21:35 Clear 67 19.3 52 10.9 58 58 SSE 7 11 30.01 1016 10 16 N/A
9:55 pm 21:55 Clear 67 19.5 51 10.7 57 57 SSE 9 15 30.02 1017 10 16 N/A
10:15 pm 22:15 Clear 67 19.3 52 10.9 58 58 SSE 9 15 30.02 1017 10 16 N/A
10:35 pm 22:35 Clear 66 18.9 52 11.2 61 61 SSE 9 15 30.03 1017 10 16 N/A
10:55 pm 22:55 Clear 65 18.3 53 11.5 65 65 S 8 13 30.03 1017 10 16 N/A
11:15 pm 23:15 Clear 64 18 53 11.7 67 67 S 8 13 30.03 1017 10 16 N/A
11:35 pm 23:35 Clear 64 17.5 53 11.9 70 70 S 8 13 30.05 1018 10 16 N/A
11:55 pm 23:55 Clear 64 17.5 54 12 70 70 S 8 13 30.05 1018 10 16 N/A

Powered by AerisWeather